Location: Zagreb
(45.8000°N, 16.0000°E)
Time: 23:50:18
(UTC+01:00)

Transit 2A Rocket - Pass Details

Date: 10 October 2020
Orbit: 586 x 916 km, 66.7° (Epoch: 28 October)

Event Time Altitude Azimuth Distance (km) Brightness Sun altitude
Rises 13:36:49 0° 169° (S) 3,512 9.2 35.9°
Reaches altitude 10° 13:39:50 10° 156° (SSE) 2,594 8.5 35.8°
Maximum altitude 13:44:24 23° 107° (ESE) 1,862 7.2 35.5°
Drops below altitude 10° 13:48:58 10° 58° (ENE) 2,594 7.4 35.2°
Sets 13:51:57 0° 44° (NE) 3,513 8.0 35.1°
